Regional Weather Roundup
Issued by NWS

Home | Current Version | Previous Version | Graphics & Text | Print | Product List | Glossary On
Versions: 1 2 3 4 5 6 7 8 9 10 11 12 13 14 15 16 17 18 19 20 21 22 23 24 25 26 27 28 29 30 31 32 33 34 35 36 37 38 39 40 41 42 43 44 45 46 47 48 49 50
625
ASUS45 KTFX 211910
RWRMT
MONTANA REGIONAL WEATHER ROUNDUP
NATIONAL WEATHER SERVICE GREAT FALLS MT
1200 PM MST SAT JAN 21 2017

NOTE: "FAIR" INDICATES FEW OR NO CLOUDS BELOW 12000 FEET WITH NO
SIGNIFICANT WEATHER AND/OR OBSTRUCTIONS TO VISIBILITY.

MTZ001>007-043-212000-
WEST OF THE DIVIDE

CITY           SKY/WX    TMP DP  RH WIND       PRES   REMARKS
KALISPELL      CLOUDY    24  23  96 CALM      29.50R
MISSOULA       LGT SNOW  22  21  96 CALM      29.53R FOG
BUTTE          MOSUNNY   19  13  77 SE3       29.42R
MULLAN PASS    SNOW      23  22  96 S5        29.39R VSB 1/2
ANACONDA         N/A     27  16  63 W3        29.44R
DEER LODGE       N/A     21  16  79 CALM      29.49R
EUREKA           N/A     27  19  74 CALM      29.54R
HAMILTON         N/A     25  19  80 CALM      29.50R
PLAINS           N/A     22  18  85 CALM      29.56R
RONAN            N/A     24  21  88 CALM      29.57R
THOMPSON FALLS   N/A     28  25  89 NE7       29.58R WCI  21
$$

MTZ008-052>055-212000-
SOUTHWEST MONTANA

CITY           SKY/WX    TMP DP  RH WIND       PRES   REMARKS
BOZEMAN        CLOUDY    18  12  77 CALM      29.45S
DILLON         CLOUDY    30  15  53 SW10      29.43R WCI  21
W YELLOWSTONE  CLOUDY    21  18  86 CALM      29.43S
ENNIS          CLOUDY    28  21  74 W5        29.46R
TWIN BRIDGES     N/A     22  12  65 E3        29.51R
$$

MTZ009-010-012-014-046-048-049-054-212000-
EAST SLOPES AND CENTRAL MONTANA

CITY           SKY/WX    TMP DP  RH WIND       PRES   REMARKS
CUT BANK       MOSUNNY   32  22  66 N9        29.43R WCI  24
GREAT FALLS    CLOUDY    29  21  72 W7        29.43R WCI  22
MALMSTROM AFB  CLOUDY    27  22  81 W6        29.45R WCI  20
HELENA         CLOUDY    13   9  84 CALM      29.48R FOG
AUGUSTA          N/A     31  19  61 W5        29.41R
BOWMANS CRNR     N/A     23  18  79 SW7       29.40R WCI  15
CHOTEAU          N/A     28  19  69 CALM      29.45R
CONRAD           N/A     29  23  78 W7        29.51R WCI  22
POWER            N/A     18  15  88 CALM      29.42R
RAYNESFORD       N/A     32  20  60 NW5       29.42R
ULM              N/A     30  21  70 MISG      29.44R
$$

MTZ011-013-016-021-045-047-050-051-212000-
NORTH CENTRAL MONTANA

CITY           SKY/WX    TMP DP  RH WIND       PRES   REMARKS
HAVRE          SUNNY     25  23  92 SW9       29.44F WCI  15
LEWISTOWN      SUNNY     32  20  61 NW5       29.40S
CHINOOK          N/A     28  25  86 W9        29.44S WCI  20
DENTON           N/A     33  24  72 CALM      29.39S
FORT BENTON      N/A     34  23  64 MISG      29.47S
GEYSER           N/A     37  21  53 CALM      29.40R
GRASS RANGE      N/A     39  20  46 W10       29.36S
JUDITH GAP       N/A     31  17  58 W3        29.39S
ROY              N/A     36  26  66 MISG      29.39S
STANFORD         N/A     35  18  48 E3        29.40R
WINIFRED         N/A     32  24  71 W10       29.41R WCI  23
$$

MTZ017>020-022>027-061-062-212000-
NORTHEAST MONTANA

CITY           SKY/WX    TMP DP  RH WIND       PRES   REMARKS
GLASGOW        SUNNY     21  18  88 W10       29.40R WCI  10
JORDAN           N/A     35  30  82 W5        29.40F
SIDNEY         CLOUDY    33  24  69 W8        29.38F WCI  26
WOLF POINT     CLOUDY    26  19  74 W15       29.41R WCI  14
PLENTYWOOD       N/A     28  27  93 W13       29.35R WCI  18
POPLAR           N/A     23  18  80 W9        29.40S WCI  13
SCOBEY           N/A     27  18  69 S5        29.38S
$$

MTZ028>42-056>058-212000-
SOUTHCENTRAL AND SOUTHEAST MONTANA

CITY           SKY/WX    TMP DP  RH WIND       PRES   REMARKS
BAKER          SUNNY     27  22  81 W6        29.39F WCI  20
BILLINGS       CLOUDY    26  18  71 SW10      29.42R WCI  16
LIVINGSTON     CLOUDY    23  12  62 NW9       29.41S WCI  13
MILES CITY     FOG       22  19  89 S7        29.43S VSB 1/2 WCI  13
BIG TIMBER     CLOUDY    30  16  55 W16       29.42F WCI  19
FORSYTH          N/A     21  19  93 CALM      29.43S
HARLOWTON        N/A     32  21  64 W10       29.40S WCI  24
LAUREL           N/A     26  18  72 S3        29.46R
$$

REGIONAL REPORTS...DAKOTAS

CITY           SKY/WX    TMP DP  RH WIND       PRES   REMARKS
WILLISTON      CLOUDY    31  25  78 W8        29.36S WCI  23
MINOT          CLOUDY    31  28  89 SW8       29.35S FOG     WCI  23
DICKINSON      CLOUDY    32  26  78 W12       29.33S WCI  23
BEACH            N/A     30  25  80 W14       29.40S WCI  20
CROSBY         CLOUDY    25  25 100 NE3       29.37R
TIOGA          CLOUDY    27  27 100 W9        29.35S WCI  17
WATFORD CITY     N/A     32  27  80 W9        29.36S WCI  24
BISMARCK       CLOUDY    30  27  88 SW5       29.38S FOG
GRAND FORKS    CLOUDY    37  32  82 CALM      29.41S
FARGO          CLOUDY    39  35  86 S6        29.40S
BUFFALO SD       N/A     33  27  78 W12       29.32S WCI  24
RAPID CITY     SUNNY     39  31  72 S6        29.40R
$$

REGIONAL REPORTS...WYOMING/IDAHO/WASHINGTON

CITY           SKY/WX    TMP DP  RH WIND       PRES   REMARKS
GILLETTE       SUNNY     37  29  72 N3        29.39F
SHERIDAN       SUNNY     29  18  63 VRB3      29.40S
BUFFALO WY     SUNNY     32  20  61 SE6       29.39S WCI  26
CODY           CLOUDY    25  13  60 CALM      29.39F
YELLOWSTONE LA   N/A     16  12  84 CALM      29.43R
IDAHO FALLS    CLOUDY    29  27  92 SW12      29.50R WCI  19
SALMON         PTSUNNY   19  16  86 CALM      29.53R
BOISE          CLOUDY    34  32  92 E7        29.57R FOG     WCI  28
SPOKANE        PTSUNNY   37  31  78 NE3       29.46R
$$

REGIONAL REPORTS...ALBERTA

CITY           SKY/WX    TMP DP  RH WIND       PRES   REMARKS
EDMONTON       CLOUDY    16  12  86 NW5       29.56R
CALGARY        MOSUNNY   30  16  55 NW8       29.46S WCI  23
LETHBRIDGE     PTSUNNY   28  21  74 W7        29.46R WCI  21
MEDICINE HAT   MOSUNNY   30  25  80 W10       29.45R WCI  21
WATERTON GATE    N/A     34  14  44 S3          N/A
MILK RIVER       N/A     30  21  69 W13         N/A  WCI  20
$$

REGIONAL REPORTS...SASKATCHEWAN

CITY           SKY/WX    TMP DP  RH WIND       PRES   REMARKS
SWIFT CURRENT  FRZ RAIN  25  25 100 NW13      29.36S VSB 1/8 WCI  13
REGINA         CLOUDY    28  27  93 NW9       29.34R FOG     WCI  20
SASKATOON      CLOUDY    28  27  93 N8        29.42R WCI  20
CYPRESS HILLS    N/A     32  23  69 NW8         N/A  WCI  25
VAL MARIE        N/A     30  21  69 SW2         N/A
ROCKGLEN         N/A     27  25  93 NW9         N/A  WCI  17
ASSINIBOIA       N/A     19  19 100 N2          N/A
$$




USA.gov is the U.S. government's official web portal to all federal, state and local government web resources and services.